Location: Newark
(42.8481°N, 0.4872°E)
Time: 17:58:00
(UTC+00:00)

Vanguard 3 - Pass Details

Date: 29 October 2020
Orbit: 508 x 3262 km, 33.3° (Epoch: 28 November)

Event Time Altitude Azimuth Distance (km) Brightness Sun altitude
Rises 03:28:09 0° 208° (SSW) 5,705 - -33.5°
Reaches altitude 10° 03:32:02 10° 199° (SSW) 5,054 - -32.8°
Exits shadow 03:32:16 11° 198° (SSW) 5,021 10.9 -32.8°
Maximum altitude 03:45:26 34° 142° (SE) 4,243 10.9 -30.4°
Drops below altitude 10° 04:01:45 10° 87° (E) 6,183 12.6 -27.5°
Sets 04:07:05 0° 80° (E) 7,098 13.3 -26.5°
